Year,Month,Day,Hour,Minute,Value (Times are PST for insolation in W/m^2)
2008,03,31,00,00,0.00
2008,03,31,00,01,0.00
2008,03,31,00,02,0.00
2008,03,31,00,03,0.00
2008,03,31,00,04,0.00
2008,03,31,00,05,0.00
2008,03,31,00,06,0.00
2008,03,31,00,07,0.00
2008,03,31,00,08,0.00
2008,03,31,00,09,0.00
2008,03,31,00,10,0.00
2008,03,31,00,11,0.00
2008,03,31,00,12,0.00
2008,03,31,00,13,0.00
2008,03,31,00,14,0.00
2008,03,31,00,15,0.00
2008,03,31,00,16,0.00
2008,03,31,00,17,0.00
2008,03,31,00,18,0.00
2008,03,31,00,19,0.00
2008,03,31,00,20,0.00
2008,03,31,00,21,0.00
2008,03,31,00,22,0.00
2008,03,31,00,23,0.00
2008,03,31,00,24,0.00
2008,03,31,00,25,0.00
2008,03,31,00,26,0.00
2008,03,31,00,27,0.00
2008,03,31,00,28,0.00
2008,03,31,00,29,0.00
2008,03,31,00,30,0.00
2008,03,31,00,31,0.00
2008,03,31,00,32,0.00
2008,03,31,00,33,0.00
2008,03,31,00,34,0.00
2008,03,31,00,35,0.00
2008,03,31,00,36,0.00
2008,03,31,00,37,0.00
2008,03,31,00,38,0.00
2008,03,31,00,39,0.00
2008,03,31,00,40,0.00
2008,03,31,00,41,0.00
2008,03,31,00,42,0.00
2008,03,31,00,43,0.00
2008,03,31,00,44,0.00
2008,03,31,00,45,0.00
2008,03,31,00,46,0.00
2008,03,31,00,47,0.00
2008,03,31,00,48,0.00
2008,03,31,00,49,0.00
2008,03,31,00,50,0.00
2008,03,31,00,51,0.00
2008,03,31,00,52,0.00
2008,03,31,00,53,0.00
2008,03,31,00,54,0.00
2008,03,31,00,55,0.00
2008,03,31,00,56,0.00
2008,03,31,00,57,0.00
2008,03,31,00,58,0.00
2008,03,31,00,59,0.00
2008,03,31,01,00,0.00
2008,03,31,01,01,0.00
2008,03,31,01,02,0.00
2008,03,31,01,03,0.00
2008,03,31,01,04,0.00
2008,03,31,01,05,0.00
2008,03,31,01,06,0.00
2008,03,31,01,07,0.00
2008,03,31,01,08,0.00
2008,03,31,01,09,0.00
2008,03,31,01,10,0.00
2008,03,31,01,11,0.00
2008,03,31,01,12,0.00
2008,03,31,01,13,0.00
2008,03,31,01,14,0.00
2008,03,31,01,15,0.00
2008,03,31,01,16,0.00
2008,03,31,01,17,0.00
2008,03,31,01,18,0.00
2008,03,31,01,19,0.00
2008,03,31,01,20,0.00
2008,03,31,01,21,0.00
2008,03,31,01,22,0.00
2008,03,31,01,23,0.00
2008,03,31,01,24,0.00
2008,03,31,01,25,0.00
2008,03,31,01,26,0.00
2008,03,31,01,27,0.00
2008,03,31,01,28,0.00
2008,03,31,01,29,0.00
2008,03,31,01,30,0.00
2008,03,31,01,31,0.00
2008,03,31,01,32,0.00
2008,03,31,01,33,0.00
2008,03,31,01,34,0.00
2008,03,31,01,35,0.00
2008,03,31,01,36,0.00
2008,03,31,01,37,0.00
2008,03,31,01,38,0.00
2008,03,31,01,39,0.00
2008,03,31,01,40,0.00
2008,03,31,01,41,0.00
2008,03,31,01,42,0.00
2008,03,31,01,43,0.00
2008,03,31,01,44,0.00
2008,03,31,01,45,0.00
2008,03,31,01,46,0.00
2008,03,31,01,47,0.00
2008,03,31,01,48,0.00
2008,03,31,01,49,0.00
2008,03,31,01,50,0.00
2008,03,31,01,51,0.00
2008,03,31,01,52,0.00
2008,03,31,01,53,0.00
2008,03,31,01,54,0.00
2008,03,31,01,55,0.00
2008,03,31,01,56,0.00
2008,03,31,01,57,0.00
2008,03,31,01,58,0.00
2008,03,31,01,59,0.00
2008,03,31,02,00,0.00
2008,03,31,02,01,0.00
2008,03,31,02,02,0.00
2008,03,31,02,03,0.00
2008,03,31,02,04,0.00
2008,03,31,02,05,0.00
2008,03,31,02,06,0.00
2008,03,31,02,07,0.00
2008,03,31,02,08,0.00
2008,03,31,02,09,0.00
2008,03,31,02,10,0.00
2008,03,31,02,11,0.00
2008,03,31,02,12,0.00
2008,03,31,02,13,0.00
2008,03,31,02,14,0.00
2008,03,31,02,15,0.00
2008,03,31,02,16,0.00
2008,03,31,02,17,0.00
2008,03,31,02,18,0.00
2008,03,31,02,19,0.00
2008,03,31,02,20,0.00
2008,03,31,02,21,0.00
2008,03,31,02,22,0.00
2008,03,31,02,23,0.00
2008,03,31,02,24,0.00
2008,03,31,02,25,0.00
2008,03,31,02,26,0.00
2008,03,31,02,27,0.00
2008,03,31,02,28,0.00
2008,03,31,02,29,0.00
2008,03,31,02,30,0.00
2008,03,31,02,31,0.00
2008,03,31,02,32,0.00
2008,03,31,02,33,0.00
2008,03,31,02,34,0.00
2008,03,31,02,35,0.00
2008,03,31,02,36,0.00
2008,03,31,02,37,0.00
2008,03,31,02,38,0.00
2008,03,31,02,39,0.00
2008,03,31,02,40,0.00
2008,03,31,02,41,0.00
2008,03,31,02,42,0.00
2008,03,31,02,43,0.00
2008,03,31,02,44,0.00
2008,03,31,02,45,0.00
2008,03,31,02,46,0.00
2008,03,31,02,47,0.00
2008,03,31,02,48,0.00
2008,03,31,02,49,0.00
2008,03,31,02,50,0.00
2008,03,31,02,51,0.00
2008,03,31,02,52,0.00
2008,03,31,02,53,0.00
2008,03,31,02,54,0.00
2008,03,31,02,55,0.00
2008,03,31,02,56,0.00
2008,03,31,02,57,0.00
2008,03,31,02,58,0.00
2008,03,31,02,59,0.00
2008,03,31,03,00,0.00
2008,03,31,03,01,0.00
2008,03,31,03,02,0.00
2008,03,31,03,03,0.00
2008,03,31,03,04,0.00
2008,03,31,03,05,0.00
2008,03,31,03,06,0.00
2008,03,31,03,07,0.00
2008,03,31,03,08,0.00
2008,03,31,03,09,0.00
2008,03,31,03,10,0.00
2008,03,31,03,11,0.00
2008,03,31,03,12,0.00
2008,03,31,03,13,0.00
2008,03,31,03,14,0.00
2008,03,31,03,15,0.00
2008,03,31,03,16,0.00
2008,03,31,03,17,0.00
2008,03,31,03,18,0.00
2008,03,31,03,19,0.00
2008,03,31,03,20,0.00
2008,03,31,03,21,0.00
2008,03,31,03,22,0.00
2008,03,31,03,23,0.00
2008,03,31,03,24,0.00
2008,03,31,03,25,0.00
2008,03,31,03,26,0.00
2008,03,31,03,27,0.00
2008,03,31,03,28,0.00
2008,03,31,03,29,0.00
2008,03,31,03,30,0.00
2008,03,31,03,31,0.00
2008,03,31,03,32,0.00
2008,03,31,03,33,0.00
2008,03,31,03,34,0.00
2008,03,31,03,35,0.00
2008,03,31,03,36,0.00
2008,03,31,03,37,0.00
2008,03,31,03,38,0.00
2008,03,31,03,39,0.00
2008,03,31,03,40,0.00
2008,03,31,03,41,0.00
2008,03,31,03,42,0.00
2008,03,31,03,43,0.00
2008,03,31,03,44,0.00
2008,03,31,03,45,0.00
2008,03,31,03,46,0.00
2008,03,31,03,47,0.00
2008,03,31,03,48,0.00
2008,03,31,03,49,0.00
2008,03,31,03,50,0.00
2008,03,31,03,51,0.00
2008,03,31,03,52,0.00
2008,03,31,03,53,0.00
2008,03,31,03,54,0.00
2008,03,31,03,55,0.00
2008,03,31,03,56,0.00
2008,03,31,03,57,0.00
2008,03,31,03,58,0.00
2008,03,31,03,59,0.00
2008,03,31,04,00,0.00
2008,03,31,04,01,0.00
2008,03,31,04,02,0.00
2008,03,31,04,03,0.00
2008,03,31,04,04,0.00
2008,03,31,04,05,0.00
2008,03,31,04,06,0.00
2008,03,31,04,07,0.00
2008,03,31,04,08,0.00
2008,03,31,04,09,0.00
2008,03,31,04,10,0.00
2008,03,31,04,11,0.00
2008,03,31,04,12,0.00
2008,03,31,04,13,0.00
2008,03,31,04,14,0.00
2008,03,31,04,15,0.00
2008,03,31,04,16,0.00
2008,03,31,04,17,0.00
2008,03,31,04,18,0.00
2008,03,31,04,19,0.00
2008,03,31,04,20,0.00
2008,03,31,04,21,0.00
2008,03,31,04,22,0.00
2008,03,31,04,23,0.00
2008,03,31,04,24,0.00
2008,03,31,04,25,0.00
2008,03,31,04,26,0.00
2008,03,31,04,27,0.00
2008,03,31,04,28,0.00
2008,03,31,04,29,0.00
2008,03,31,04,30,0.00
2008,03,31,04,31,0.00
2008,03,31,04,32,0.00
2008,03,31,04,33,0.00
2008,03,31,04,34,0.00
2008,03,31,04,35,0.00
2008,03,31,04,36,0.00
2008,03,31,04,37,0.00
2008,03,31,04,38,0.00
2008,03,31,04,39,0.00
2008,03,31,04,40,0.00
2008,03,31,04,41,0.00
2008,03,31,04,42,0.00
2008,03,31,04,43,0.00
2008,03,31,04,44,0.00
2008,03,31,04,45,0.00
2008,03,31,04,46,0.00
2008,03,31,04,47,0.00
2008,03,31,04,48,0.00
2008,03,31,04,49,0.00
2008,03,31,04,50,0.00
2008,03,31,04,51,0.00
2008,03,31,04,52,0.00
2008,03,31,04,53,0.00
2008,03,31,04,54,0.00
2008,03,31,04,55,0.00
2008,03,31,04,56,0.00
2008,03,31,04,57,0.00
2008,03,31,04,58,0.00
2008,03,31,04,59,0.00
2008,03,31,05,00,0.00
2008,03,31,05,01,0.00
2008,03,31,05,02,0.00
2008,03,31,05,03,0.00
2008,03,31,05,04,0.00
2008,03,31,05,05,0.00
2008,03,31,05,06,0.00
2008,03,31,05,07,0.00
2008,03,31,05,08,0.00
2008,03,31,05,09,0.00
2008,03,31,05,10,0.00
2008,03,31,05,11,0.00
2008,03,31,05,12,0.00
2008,03,31,05,13,0.00
2008,03,31,05,14,0.00
2008,03,31,05,15,0.00
2008,03,31,05,16,0.00
2008,03,31,05,17,0.00
2008,03,31,05,18,0.00
2008,03,31,05,19,0.00
2008,03,31,05,20,0.00
2008,03,31,05,21,0.00
2008,03,31,05,22,0.00
2008,03,31,05,23,0.00
2008,03,31,05,24,0.00
2008,03,31,05,25,0.00
2008,03,31,05,26,0.00
2008,03,31,05,27,0.00
2008,03,31,05,28,0.00
2008,03,31,05,29,0.00
2008,03,31,05,30,0.00
2008,03,31,05,31,0.00
2008,03,31,05,32,0.00
2008,03,31,05,33,0.00
2008,03,31,05,34,0.00
2008,03,31,05,35,0.00
2008,03,31,05,36,0.00
2008,03,31,05,37,0.00
2008,03,31,05,38,0.00
2008,03,31,05,39,0.00
2008,03,31,05,40,0.00
2008,03,31,05,41,0.00
2008,03,31,05,42,0.00
2008,03,31,05,43,0.00
2008,03,31,05,44,0.00
2008,03,31,05,45,0.00
2008,03,31,05,46,0.00
2008,03,31,05,47,0.00
2008,03,31,05,48,0.00
2008,03,31,05,49,0.00
2008,03,31,05,50,0.00
2008,03,31,05,51,0.00
2008,03,31,05,52,0.00
2008,03,31,05,53,0.00
2008,03,31,05,54,0.00
2008,03,31,05,55,0.00
2008,03,31,05,56,0.00
2008,03,31,05,57,0.00
2008,03,31,05,58,0.00
2008,03,31,05,59,0.00
2008,03,31,06,00,0.00
2008,03,31,06,01,0.00
2008,03,31,06,02,0.00
2008,03,31,06,03,0.00
2008,03,31,06,04,0.00
2008,03,31,06,05,0.00
2008,03,31,06,06,0.00
2008,03,31,06,07,0.00
2008,03,31,06,08,0.00
2008,03,31,06,09,0.00
2008,03,31,06,10,0.00
2008,03,31,06,11,0.00
2008,03,31,06,12,0.00
2008,03,31,06,13,0.00
2008,03,31,06,14,0.00
2008,03,31,06,15,0.00
2008,03,31,06,16,0.00
2008,03,31,06,17,0.00
2008,03,31,06,18,0.00
2008,03,31,06,19,0.00
2008,03,31,06,20,0.00
2008,03,31,06,21,0.00
2008,03,31,06,22,0.00
2008,03,31,06,23,0.00
2008,03,31,06,24,0.00
2008,03,31,06,25,0.00
2008,03,31,06,26,0.00
2008,03,31,06,27,0.00
2008,03,31,06,28,0.00
2008,03,31,06,29,0.00
2008,03,31,06,30,0.00
2008,03,31,06,31,0.00
2008,03,31,06,32,0.00
2008,03,31,06,33,0.00
2008,03,31,06,34,0.00
2008,03,31,06,35,0.00
2008,03,31,06,36,0.00
2008,03,31,06,37,0.00
2008,03,31,06,38,0.00
2008,03,31,06,39,0.00
2008,03,31,06,40,0.00
2008,03,31,06,41,0.00
2008,03,31,06,42,0.00
2008,03,31,06,43,0.00
2008,03,31,06,44,0.00
2008,03,31,06,45,0.00
2008,03,31,06,46,0.00
2008,03,31,06,47,0.00
2008,03,31,06,48,0.00
2008,03,31,06,49,0.00
2008,03,31,06,50,0.00
2008,03,31,06,51,0.00
2008,03,31,06,52,0.00
2008,03,31,06,53,0.00
2008,03,31,06,54,0.00
2008,03,31,06,55,0.00
2008,03,31,06,56,3.20
2008,03,31,06,57,5.00
2008,03,31,06,58,5.00
2008,03,31,06,59,5.00
2008,03,31,07,00,5.70
2008,03,31,07,01,7.00
2008,03,31,07,02,7.00
2008,03,31,07,03,7.00
2008,03,31,07,04,9.00
2008,03,31,07,05,9.00
2008,03,31,07,06,9.70
2008,03,31,07,07,11.00
2008,03,31,07,08,11.70
2008,03,31,07,09,12.00
2008,03,31,07,10,13.80
2008,03,31,07,11,14.00
2008,03,31,07,12,14.00
2008,03,31,07,13,14.00
2008,03,31,07,14,15.40
2008,03,31,07,15,16.00
2008,03,31,07,16,16.00
2008,03,31,07,17,16.00
2008,03,31,07,18,16.80
2008,03,31,07,19,18.00
2008,03,31,07,20,18.00
2008,03,31,07,21,18.90
2008,03,31,07,22,19.00
2008,03,31,07,23,19.00
2008,03,31,07,24,19.80
2008,03,31,07,25,21.00
2008,03,31,07,26,21.00
2008,03,31,07,27,21.00
2008,03,31,07,28,22.90
2008,03,31,07,29,23.00
2008,03,31,07,30,23.00
2008,03,31,07,31,23.00
2008,03,31,07,32,24.60
2008,03,31,07,33,25.90
2008,03,31,07,34,28.40
2008,03,31,07,35,30.70
2008,03,31,07,36,32.50
2008,03,31,07,37,33.00
2008,03,31,07,38,34.50
2008,03,31,07,39,37.00
2008,03,31,07,40,39.00
2008,03,31,07,41,39.00
2008,03,31,07,42,40.50
2008,03,31,07,43,42.00
2008,03,31,07,44,43.40
2008,03,31,07,45,46.00
2008,03,31,07,46,46.00
2008,03,31,07,47,46.00
2008,03,31,07,48,46.00
2008,03,31,07,49,46.70
2008,03,31,07,50,47.00
2008,03,31,07,51,50.70
2008,03,31,07,52,53.20
2008,03,31,07,53,55.60
2008,03,31,07,54,53.20
2008,03,31,07,55,49.00
2008,03,31,07,56,50.80
2008,03,31,07,57,54.10
2008,03,31,07,58,57.60
2008,03,31,07,59,65.40
2008,03,31,08,00,82.20
2008,03,31,08,01,90.00
2008,03,31,08,02,90.00
2008,03,31,08,03,81.90
2008,03,31,08,04,59.00
2008,03,31,08,05,56.80
2008,03,31,08,06,55.50
2008,03,31,08,07,51.40
2008,03,31,08,08,49.10
2008,03,31,08,09,49.00
2008,03,31,08,10,50.20
2008,03,31,08,11,53.50
2008,03,31,08,12,77.80
2008,03,31,08,13,125.10
2008,03,31,08,14,124.30
2008,03,31,08,15,150.80
2008,03,31,08,16,163.00
2008,03,31,08,17,133.20
2008,03,31,08,18,134.80
2008,03,31,08,19,159.20
2008,03,31,08,20,116.00
2008,03,31,08,21,89.10
2008,03,31,08,22,50.30
2008,03,31,08,23,50.10
2008,03,31,08,24,51.00
2008,03,31,08,25,54.50
2008,03,31,08,26,54.00
2008,03,31,08,27,52.20
2008,03,31,08,28,50.80
2008,03,31,08,29,53.50
2008,03,31,08,30,53.00
2008,03,31,08,31,49.50
2008,03,31,08,32,47.30
2008,03,31,08,33,50.60
2008,03,31,08,34,56.70
2008,03,31,08,35,58.00
2008,03,31,08,36,58.00
2008,03,31,08,37,68.60
2008,03,31,08,38,81.10
2008,03,31,08,39,95.10
2008,03,31,08,40,103.10
2008,03,31,08,41,107.40
2008,03,31,08,42,112.60
2008,03,31,08,43,117.80
2008,03,31,08,44,115.80
2008,03,31,08,45,113.00
2008,03,31,08,46,113.00
2008,03,31,08,47,109.70
2008,03,31,08,48,105.60
2008,03,31,08,49,105.00
2008,03,31,08,50,101.80
2008,03,31,08,51,99.20
2008,03,31,08,52,95.10
2008,03,31,08,53,91.30
2008,03,31,08,54,84.60
2008,03,31,08,55,77.40
2008,03,31,08,56,71.60
2008,03,31,08,57,68.40
2008,03,31,08,58,67.00
2008,03,31,08,59,72.50
2008,03,31,09,00,77.00
2008,03,31,09,01,93.60
2008,03,31,09,02,379.70
2008,03,31,09,03,406.50
2008,03,31,09,04,424.00
2008,03,31,09,05,424.00
2008,03,31,09,06,233.80
2008,03,31,09,07,196.60
2008,03,31,09,08,228.80
2008,03,31,09,09,226.20
2008,03,31,09,10,232.00
2008,03,31,09,11,232.00
2008,03,31,09,12,232.00
2008,03,31,09,13,295.00
2008,03,31,09,14,295.00
2008,03,31,09,15,295.00
2008,03,31,09,16,350.90
2008,03,31,09,17,382.90
2008,03,31,09,18,424.80
2008,03,31,09,19,430.00
2008,03,31,09,20,334.00
2008,03,31,09,21,281.60
2008,03,31,09,22,216.00
2008,03,31,09,23,214.10
2008,03,31,09,24,213.90
2008,03,31,09,25,220.30
2008,03,31,09,26,224.20
2008,03,31,09,27,227.00
2008,03,31,09,28,227.00
2008,03,31,09,29,227.00
2008,03,31,09,30,221.30
2008,03,31,09,31,231.60
2008,03,31,09,32,249.00
2008,03,31,09,33,290.20
2008,03,31,09,34,302.80
2008,03,31,09,35,313.30
2008,03,31,09,36,320.00
2008,03,31,09,37,490.00
2008,03,31,09,38,422.30
2008,03,31,09,39,285.10
2008,03,31,09,40,283.00
2008,03,31,09,41,279.70
2008,03,31,09,42,283.00
2008,03,31,09,43,380.50
2008,03,31,09,44,425.00
2008,03,31,09,45,469.00
2008,03,31,09,46,498.20
2008,03,31,09,47,501.00
2008,03,31,09,48,462.00
2008,03,31,09,49,494.90
2008,03,31,09,50,638.60
2008,03,31,09,51,691.00
2008,03,31,09,52,691.00
2008,03,31,09,53,691.00
2008,03,31,09,54,687.50
2008,03,31,09,55,615.10
2008,03,31,09,56,581.50
2008,03,31,09,57,598.50
2008,03,31,09,58,602.90
2008,03,31,09,59,609.40
2008,03,31,10,00,573.00
2008,03,31,10,01,501.00
2008,03,31,10,02,501.00
2008,03,31,10,03,501.00
2008,03,31,10,04,583.30
2008,03,31,10,05,616.80
2008,03,31,10,06,599.00
2008,03,31,10,07,632.40
2008,03,31,10,08,631.00
2008,03,31,10,09,631.00
2008,03,31,10,10,631.00
2008,03,31,10,11,308.20
2008,03,31,10,12,288.00
2008,03,31,10,13,288.00
2008,03,31,10,14,478.00
2008,03,31,10,15,760.50
2008,03,31,10,16,758.00
2008,03,31,10,17,671.30
2008,03,31,10,18,593.20
2008,03,31,10,19,279.00
2008,03,31,10,20,488.20
2008,03,31,10,21,744.00
2008,03,31,10,22,597.40
2008,03,31,10,23,532.80
2008,03,31,10,24,489.30
2008,03,31,10,25,292.90
2008,03,31,10,26,270.50
2008,03,31,10,27,267.50
2008,03,31,10,28,276.90
2008,03,31,10,29,273.30
2008,03,31,10,30,262.40
2008,03,31,10,31,268.20
2008,03,31,10,32,279.50
2008,03,31,10,33,283.00
2008,03,31,10,34,283.00
2008,03,31,10,35,275.60
2008,03,31,10,36,151.40
2008,03,31,10,37,113.30
2008,03,31,10,38,83.90
2008,03,31,10,39,63.90
2008,03,31,10,40,53.80
2008,03,31,10,41,49.20
2008,03,31,10,42,46.00
2008,03,31,10,43,47.20
2008,03,31,10,44,50.00
2008,03,31,10,45,53.20
2008,03,31,10,46,57.60
2008,03,31,10,47,64.00
2008,03,31,10,48,73.20
2008,03,31,10,49,79.80
2008,03,31,10,50,91.90
2008,03,31,10,51,104.60
2008,03,31,10,52,121.40
2008,03,31,10,53,139.20
2008,03,31,10,54,143.90
2008,03,31,10,55,148.20
2008,03,31,10,56,146.60
2008,03,31,10,57,159.50
2008,03,31,10,58,191.90
2008,03,31,10,59,197.00
2008,03,31,11,00,216.10
2008,03,31,11,01,259.80
2008,03,31,11,02,237.70
2008,03,31,11,03,210.90
2008,03,31,11,04,193.00
2008,03,31,11,05,185.40
2008,03,31,11,06,188.00
2008,03,31,11,07,188.00
2008,03,31,11,08,201.80
2008,03,31,11,09,207.70
2008,03,31,11,10,204.00
2008,03,31,11,11,206.00
2008,03,31,11,12,206.00
2008,03,31,11,13,206.00
2008,03,31,11,14,206.00
2008,03,31,11,15,206.00
2008,03,31,11,16,230.30
2008,03,31,11,17,246.20
2008,03,31,11,18,241.40
2008,03,31,11,19,255.00
2008,03,31,11,20,255.00
2008,03,31,11,21,255.00
2008,03,31,11,22,256.60
2008,03,31,11,23,267.90
2008,03,31,11,24,253.90
2008,03,31,11,25,260.00
2008,03,31,11,26,211.30
2008,03,31,11,27,188.00
2008,03,31,11,28,197.30
2008,03,31,11,29,256.50
2008,03,31,11,30,232.10
2008,03,31,11,31,230.00
2008,03,31,11,32,197.80
2008,03,31,11,33,205.10
2008,03,31,11,34,198.10
2008,03,31,11,35,212.30
2008,03,31,11,36,245.30
2008,03,31,11,37,258.00
2008,03,31,11,38,248.20
2008,03,31,11,39,252.50
2008,03,31,11,40,240.00
2008,03,31,11,41,220.30
2008,03,31,11,42,201.50
2008,03,31,11,43,184.80
2008,03,31,11,44,180.50
2008,03,31,11,45,188.60
2008,03,31,11,46,190.00
2008,03,31,11,47,190.00
2008,03,31,11,48,190.00
2008,03,31,11,49,259.20
2008,03,31,11,50,295.40
2008,03,31,11,51,294.80
2008,03,31,11,52,310.10
2008,03,31,11,53,312.90
2008,03,31,11,54,336.90
2008,03,31,11,55,331.50
2008,03,31,11,56,303.50
2008,03,31,11,57,369.30
2008,03,31,11,58,411.60
2008,03,31,11,59,487.00
2008,03,31,12,00,438.90
2008,03,31,12,01,346.10
2008,03,31,12,02,332.00
2008,03,31,12,03,918.00
2008,03,31,12,04,787.80
2008,03,31,12,05,264.10
2008,03,31,12,06,265.30
2008,03,31,12,07,269.00
2008,03,31,12,08,880.50
2008,03,31,12,09,939.50
2008,03,31,12,10,912.80
2008,03,31,12,11,888.00
2008,03,31,12,12,888.00
2008,03,31,12,13,888.00
2008,03,31,12,14,888.00
2008,03,31,12,15,878.50
2008,03,31,12,16,844.30
2008,03,31,12,17,883.00
2008,03,31,12,18,889.00
2008,03,31,12,19,889.00
2008,03,31,12,20,868.60
2008,03,31,12,21,867.80
2008,03,31,12,22,875.50
2008,03,31,12,23,884.00
2008,03,31,12,24,884.00
2008,03,31,12,25,906.20
2008,03,31,12,26,911.00
2008,03,31,12,27,457.00
2008,03,31,12,28,612.60
2008,03,31,12,29,897.10
2008,03,31,12,30,896.00
2008,03,31,12,31,431.00
2008,03,31,12,32,311.20
2008,03,31,12,33,909.00
2008,03,31,12,34,662.60
2008,03,31,12,35,216.00
2008,03,31,12,36,231.60
2008,03,31,12,37,236.00
2008,03,31,12,38,236.00
2008,03,31,12,39,236.00
2008,03,31,12,40,471.50
2008,03,31,12,41,922.30
2008,03,31,12,42,933.00
2008,03,31,12,43,933.00
2008,03,31,12,44,951.00
2008,03,31,12,45,951.00
2008,03,31,12,46,951.00
2008,03,31,12,47,964.50
2008,03,31,12,48,974.00
2008,03,31,12,49,970.50
2008,03,31,12,50,977.50
2008,03,31,12,51,992.80
2008,03,31,12,52,1009.00
2008,03,31,12,53,1009.00
2008,03,31,12,54,1009.00
2008,03,31,12,55,1009.00
2008,03,31,12,56,930.10
2008,03,31,12,57,914.20
2008,03,31,12,58,904.80
2008,03,31,12,59,905.30
2008,03,31,13,00,921.30
2008,03,31,13,01,937.30
2008,03,31,13,02,940.40
2008,03,31,13,03,945.20
2008,03,31,13,04,955.20
2008,03,31,13,05,965.00
2008,03,31,13,06,975.20
2008,03,31,13,07,977.00
2008,03,31,13,08,995.30
2008,03,31,13,09,1033.50
2008,03,31,13,10,1016.00
2008,03,31,13,11,1008.90
2008,03,31,13,12,1028.20
2008,03,31,13,13,1062.00
2008,03,31,13,14,1065.90
2008,03,31,13,15,1069.00
2008,03,31,13,16,966.00
2008,03,31,13,17,840.00
2008,03,31,13,18,840.00
2008,03,31,13,19,1045.70
2008,03,31,13,20,1036.00
2008,03,31,13,21,1017.40
2008,03,31,13,22,1016.50
2008,03,31,13,23,1006.70
2008,03,31,13,24,991.60
2008,03,31,13,25,987.90
2008,03,31,13,26,1024.90
2008,03,31,13,27,1046.20
2008,03,31,13,28,1052.10
2008,03,31,13,29,1049.00
2008,03,31,13,30,1049.00
2008,03,31,13,31,892.20
2008,03,31,13,32,884.00
2008,03,31,13,33,884.00
2008,03,31,13,34,884.00
2008,03,31,13,35,884.00
2008,03,31,13,36,432.20
2008,03,31,13,37,387.00
2008,03,31,13,38,387.00
2008,03,31,13,39,405.70
2008,03,31,13,40,429.00
2008,03,31,13,41,358.20
2008,03,31,13,42,296.70
2008,03,31,13,43,323.00
2008,03,31,13,44,323.00
2008,03,31,13,45,323.00
2008,03,31,13,46,323.00
2008,03,31,13,47,371.20
2008,03,31,13,48,350.10
2008,03,31,13,49,352.50
2008,03,31,13,50,376.80
2008,03,31,13,51,351.30
2008,03,31,13,52,357.70
2008,03,31,13,53,357.00
2008,03,31,13,54,357.80
2008,03,31,13,55,364.90
2008,03,31,13,56,309.90
2008,03,31,13,57,269.10
2008,03,31,13,58,249.50
2008,03,31,13,59,247.50
2008,03,31,14,00,274.60
2008,03,31,14,01,318.00
2008,03,31,14,02,318.00
2008,03,31,14,03,313.20
2008,03,31,14,04,309.00
2008,03,31,14,05,284.00
2008,03,31,14,06,263.60
2008,03,31,14,07,239.60
2008,03,31,14,08,232.60
2008,03,31,14,09,225.90
2008,03,31,14,10,220.70
2008,03,31,14,11,220.80
2008,03,31,14,12,243.00
2008,03,31,14,13,243.00
2008,03,31,14,14,260.30
2008,03,31,14,15,281.10
2008,03,31,14,16,266.80
2008,03,31,14,17,280.00
2008,03,31,14,18,248.90
2008,03,31,14,19,238.40
2008,03,31,14,20,225.80
2008,03,31,14,21,206.40
2008,03,31,14,22,191.60
2008,03,31,14,23,181.40
2008,03,31,14,24,174.30
2008,03,31,14,25,177.70
2008,03,31,14,26,190.00
2008,03,31,14,27,216.30
2008,03,31,14,28,225.00
2008,03,31,14,29,279.00
2008,03,31,14,30,288.30
2008,03,31,14,31,290.20
2008,03,31,14,32,269.10
2008,03,31,14,33,239.90
2008,03,31,14,34,214.20
2008,03,31,14,35,194.50
2008,03,31,14,36,185.80
2008,03,31,14,37,185.90
2008,03,31,14,38,194.40
2008,03,31,14,39,214.40
2008,03,31,14,40,243.10
2008,03,31,14,41,290.30
2008,03,31,14,42,379.00
2008,03,31,14,43,673.00
2008,03,31,14,44,673.00
2008,03,31,14,45,644.10
2008,03,31,14,46,633.00
2008,03,31,14,47,340.00
2008,03,31,14,48,288.40
2008,03,31,14,49,259.60
2008,03,31,14,50,234.80
2008,03,31,14,51,219.10
2008,03,31,14,52,213.20
2008,03,31,14,53,220.80
2008,03,31,14,54,238.80
2008,03,31,14,55,260.40
2008,03,31,14,56,272.80
2008,03,31,14,57,266.20
2008,03,31,14,58,250.70
2008,03,31,14,59,242.30
2008,03,31,15,00,236.20
2008,03,31,15,01,250.50
2008,03,31,15,02,269.00
2008,03,31,15,03,269.00
2008,03,31,15,04,265.00
2008,03,31,15,05,211.80
2008,03,31,15,06,217.20
2008,03,31,15,07,216.50
2008,03,31,15,08,208.50
2008,03,31,15,09,198.30
2008,03,31,15,10,188.00
2008,03,31,15,11,185.90
2008,03,31,15,12,193.00
2008,03,31,15,13,206.50
2008,03,31,15,14,224.00
2008,03,31,15,15,230.00
2008,03,31,15,16,230.00
2008,03,31,15,17,234.90
2008,03,31,15,18,230.70
2008,03,31,15,19,240.90
2008,03,31,15,20,261.40
2008,03,31,15,21,291.00
2008,03,31,15,22,331.80
2008,03,31,15,23,855.10
2008,03,31,15,24,851.00
2008,03,31,15,25,851.00
2008,03,31,15,26,579.20
2008,03,31,15,27,466.00
2008,03,31,15,28,732.40
2008,03,31,15,29,803.00
2008,03,31,15,30,796.50
2008,03,31,15,31,786.00
2008,03,31,15,32,786.00
2008,03,31,15,33,357.20
2008,03,31,15,34,253.00
2008,03,31,15,35,253.00
2008,03,31,15,36,422.60
2008,03,31,15,37,677.00
2008,03,31,15,38,677.00
2008,03,31,15,39,265.80
2008,03,31,15,40,160.80
2008,03,31,15,41,166.70
2008,03,31,15,42,176.60
2008,03,31,15,43,193.40
2008,03,31,15,44,170.90
2008,03,31,15,45,156.30
2008,03,31,15,46,152.10
2008,03,31,15,47,145.90
2008,03,31,15,48,138.20
2008,03,31,15,49,132.90
2008,03,31,15,50,132.00
2008,03,31,15,51,139.00
2008,03,31,15,52,150.90
2008,03,31,15,53,162.20
2008,03,31,15,54,171.50
2008,03,31,15,55,182.00
2008,03,31,15,56,209.30
2008,03,31,15,57,214.00
2008,03,31,15,58,217.20
2008,03,31,15,59,232.00
2008,03,31,16,00,232.00
2008,03,31,16,01,232.00
2008,03,31,16,02,232.00
2008,03,31,16,03,232.00
2008,03,31,16,04,232.00
2008,03,31,16,05,232.00
2008,03,31,16,06,223.40
2008,03,31,16,07,209.40
2008,03,31,16,08,252.00
2008,03,31,16,09,223.00
2008,03,31,16,10,223.00
2008,03,31,16,11,216.40
2008,03,31,16,12,194.60
2008,03,31,16,13,188.00
2008,03,31,16,14,188.00
2008,03,31,16,15,187.80
2008,03,31,16,16,185.70
2008,03,31,16,17,182.70
2008,03,31,16,18,173.50
2008,03,31,16,19,165.90
2008,03,31,16,20,171.20
2008,03,31,16,21,185.60
2008,03,31,16,22,194.20
2008,03,31,16,23,193.40
2008,03,31,16,24,188.00
2008,03,31,16,25,188.00
2008,03,31,16,26,188.00
2008,03,31,16,27,156.00
2008,03,31,16,28,157.50
2008,03,31,16,29,164.10
2008,03,31,16,30,168.10
2008,03,31,16,31,177.20
2008,03,31,16,32,189.40
2008,03,31,16,33,193.00
2008,03,31,16,34,193.70
2008,03,31,16,35,203.50
2008,03,31,16,36,213.60
2008,03,31,16,37,217.30
2008,03,31,16,38,225.00
2008,03,31,16,39,234.80
2008,03,31,16,40,243.50
2008,03,31,16,41,242.70
2008,03,31,16,42,244.00
2008,03,31,16,43,239.50
2008,03,31,16,44,246.70
2008,03,31,16,45,259.60
2008,03,31,16,46,262.10
2008,03,31,16,47,253.80
2008,03,31,16,48,247.60
2008,03,31,16,49,241.60
2008,03,31,16,50,235.60
2008,03,31,16,51,227.40
2008,03,31,16,52,217.70
2008,03,31,16,53,208.90
2008,03,31,16,54,201.80
2008,03,31,16,55,195.60
2008,03,31,16,56,191.30
2008,03,31,16,57,186.00
2008,03,31,16,58,184.00
2008,03,31,16,59,175.10
2008,03,31,17,00,164.50
2008,03,31,17,01,156.40
2008,03,31,17,02,152.50
2008,03,31,17,03,148.20
2008,03,31,17,04,146.00
2008,03,31,17,05,147.20
2008,03,31,17,06,148.00
2008,03,31,17,07,144.20
2008,03,31,17,08,140.60
2008,03,31,17,09,136.10
2008,03,31,17,10,132.10
2008,03,31,17,11,128.40
2008,03,31,17,12,125.40
2008,03,31,17,13,121.20
2008,03,31,17,14,117.40
2008,03,31,17,15,113.70